Location: Unspecified
(0.0000°N, 0.0000°E)
Time: 22:09:57
(UTC+00:00)

GALILEO 8 (264) - Pass Details

Date: 19 December 2022
Orbit: 23209 x 23234 km, 56.9° (Epoch: 05 February)

Event Time Altitude Azimuth Distance (km) Brightness Sun altitude
Rises 04:33:21 0° 328° (NNW) 28,911 ? -19.1°
Reaches altitude 10° 05:13:21 10° 334° (NNW) 27,819 ? -10.0°
Maximum altitude 08:25:10 66° 273° (W) 23,644 ? 33.6°
Drops below altitude 10° 17:31:25 10° 45° (NE) 27,818 ? 5.9°
Sets 18:11:56 0° 37° (NE) 28,911 ? -3.4°
